EW5037 Weather Reports


Display with metric or nautical units.
time (UTC)temp
F
wind
direction
speed
MPH
gust
MPH
rain 1hr
in
rain 24hr
in
rain mn
in
humidity
%
barometer
mb
20260502163420 67 293 10.0 17.0 0.00 0.00 0.00 69 1018.2
20260502162335 66 45 9.0 19.0 0.00 0.00 0.00 70 1018.2
20260502161250 65 338 10.0 12.0 0.00 0.00 0.00 70 1018.5
20260502160211 65 45 10.0 17.0 0.00 0.00 0.00 71 1018.5
20260502151900 65 23 13.0 17.0 0.00 0.00 0.00 71 1017.4
20260502150817 64 23 11.0 15.0 0.00 0.00 0.00 72 1017.4
20260502123729 58 23 9.0 13.0 0.00 0.00 0.00 84 1015.7
20260502122642 58 338 11.0 14.0 0.00 0.00 0.00 84 1015.7
20260502121558 58 338 10.0 15.0 0.00 0.00 0.00 84 1015.2
20260502120512 58 0 10.0 14.0 0.00 0.00 0.00 84 1015.2
20260502115427 58 68 11.0 16.0 0.00 0.00 0.00 84 1014.7
20260502115300 58 315 12.0 14.0 0.00 0.00 0.00 84 1014.7
20260502113254 58 338 11.0 16.0 0.00 0.00 0.00 84 1014.4
20260502112208 58 338 12.0 18.0 0.00 0.00 0.00 85 1014.4
20260502111123 58 23 11.0 15.0 0.00 0.00 0.00 84 1014.1
20260502110037 58 315 12.0 14.0 0.00 0.00 0.00 84 1013.9
20260502105438 58 315 13.0 19.0 0.00 0.00 0.00 84 1013.9
20260502103910 58 0 12.0 16.0 0.00 0.00 0.00 84 1013.4
20260502102820 58 315 11.0 13.0 0.00 0.00 0.00 84 1013.4
20260502102219 58 338 12.0 16.0 0.00 0.00 0.00 84 1013.5
20260502100650 58 23 11.0 17.0 0.00 0.00 0.00 84 1013.5
20260502091300 59 315 11.0 18.0 0.00 0.00 0.00 85 1012.6
20260502090215 59 338 10.0 13.0 0.00 0.00 0.00 85 1012.6
20260502070827 61 293 10.0 13.0 0.00 0.00 0.00 85 1013.1
20260502065750 61 315 10.0 17.0 0.00 0.00 0.00 85 1013.8
20260502064219 62 270 7.0 10.0 0.00 0.00 0.00 85 1013.8
20260502063130 62 315 9.0 16.0 0.00 0.00 0.00 84 1013.0
20260502062048 62 338 10.0 13.0 0.00 0.00 0.00 84 1012.9
20260502061000 63 338 10.0 13.0 0.00 0.00 0.00 84 1012.9
20260502060348 63 315 7.0 11.0 0.00 0.00 0.00 85 1012.7
20260502054825 63 23 6.0 8.0 0.00 0.00 0.00 85 1012.7
20260502054224 62 315 9.0 11.0 0.00 0.00 0.00 85 1012.1
20260502052657 62 23 9.0 12.0 0.00 0.00 0.00 85 1012.1
20260502052056 63 315 9.0 13.0 0.00 0.00 0.00 85 1012.9
20260502050527 63 23 7.0 9.0 0.00 0.00 0.00 85 1012.9
20260502045441 63 315 6.0 9.0 0.00 0.00 0.00 85 1012.7
20260502044354 63 338 4.0 5.0 0.00 0.00 0.00 86 1012.7
20260502043310 63 45 5.0 10.0 0.00 0.00 0.00 86 1013.0
20260502042226 63 45 3.0 5.0 0.00 0.00 0.00 86 1013.0
20260502041621 63 23 4.0 6.0 0.00 0.00 0.00 86 1012.4
20260502040053 63 23 6.0 9.0 0.00 0.00 0.00 86 1011.6
20260502035007 62 315 7.0 8.0 0.00 0.00 0.00 86 1011.6
20260502033923 62 45 6.0 11.0 0.00 0.00 0.00 86 1012.1
20260502032839 62 23 7.0 11.0 0.00 0.00 0.00 86 1012.1
20260502031751 62 68 6.0 12.0 0.00 0.00 0.00 86 1012.4
20260502030709 62 23 5.0 9.0 0.00 0.00 0.00 86 1012.4
20260502025620 62 45 6.0 12.0 0.00 0.00 0.00 86 1012.0
20260502024534 62 23 8.0 12.0 0.00 0.00 0.00 86 1012.0
20260502023448 62 23 7.0 11.0 0.00 0.00 0.00 86 1011.6
20260502022403 62 23 8.0 15.0 0.00 0.00 0.00 86 1011.6
20260502021319 62 23 9.0 13.0 0.00 0.00 0.00 86 1011.1
20260502020237 62 23 9.0 14.0 0.00 0.00 0.00 86 1011.1
20260502015148 62 23 9.0 14.0 0.00 0.00 0.00 86 1011.7
20260502014103 62 0 9.0 15.0 0.00 0.00 0.00 86 1011.6
20260502013507 62 0 11.0 17.0 0.00 0.00 0.00 86 1011.6
20260502011930 62 23 9.0 16.0 0.00 0.00 0.00 86 1010.9
20260502010845 62 23 10.0 21.0 0.00 0.00 0.00 86 1010.9
20260502005804 62 45 10.0 17.0 0.00 0.00 0.00 85 1011.4
20260502004712 62 45 12.0 19.0 0.00 0.00 0.00 85 1011.4
20260502004546 63 23 11.0 21.0 0.00 0.00 0.00 84 1011.3
20260502003018 63 0 12.0 16.0 0.00 0.00 0.00 84 1011.3
20260502001453 63 23 11.0 19.0 0.00 0.00 0.00 84 1011.0
20260502000409 64 0 11.0 21.0 0.00 0.00 0.00 84 1011.0
20260501235327 64 338 13.0 25.0 0.00 0.00 0.00 84 1010.2
20260501234236 64 23 15.0 20.0 0.00 0.00 0.00 84 1010.2
20260501233149 64 90 14.0 17.0 0.00 0.00 0.00 84 1010.4
20260501232542 64 23 12.0 22.0 0.00 0.00 0.00 84 1010.5
20260501231024 65 23 11.0 15.0 0.00 0.00 0.00 84 1010.5
20260501225929 65 68 14.0 23.0 0.00 0.00 0.00 84 1010.8
20260501224850 65 338 10.0 15.0 0.00 0.00 0.00 85 1010.8
20260501223801 65 0 12.0 25.0 0.00 0.00 0.00 84 1010.6
20260501222717 66 338 11.0 16.0 0.00 0.00 0.00 84 1010.6
20260501221627 66 23 11.0 15.0 0.00 0.00 0.00 84 1010.4
20260501220539 66 338 11.0 16.0 0.00 0.00 0.00 84 1010.4
20260501215456 66 0 12.0 16.0 0.00 0.00 0.00 84 1010.2
20260501214857 66 23 11.0 17.0 0.00 0.00 0.00 83 1010.2
20260501213324 66 23 13.0 19.0 0.00 0.00 0.00 83 1010.8
20260501212241 67 338 13.0 17.0 0.00 0.00 0.00 83 1010.8
20260501211153 67 338 13.0 17.0 0.00 0.00 0.00 84 1010.9
20260501210107 68 338 12.0 18.0 0.00 0.00 0.00 84 1010.5
20260501205028 68 23 11.0 14.0 0.00 0.00 0.00 85 1010.5
20260501203939 69 0 10.0 22.0 0.00 0.00 0.00 86 1010.2
20260501202843 69 293 8.0 13.0 0.00 0.00 0.00 86 1010.2
20260501201800 70 0 10.0 14.0 0.00 0.00 0.00 86 1010.9
20260501200718 70 23 8.0 15.0 0.00 0.00 0.00 87 1010.9
20260501195627 71 293 4.0 6.0 0.00 0.00 0.00 87 1010.6
20260501194539 71 338 4.0 8.0 0.00 0.00 0.00 87 1010.6
20260501193459 71 45 3.0 6.0 0.00 0.00 0.00 87 1010.4
20260501193333 70 68 3.0 5.0 0.00 0.00 0.00 86 1010.4
20260501191322 70 45 5.0 8.0 0.00 0.00 0.00 86 1010.7
20260501190235 70 68 5.0 9.0 0.00 0.00 0.00 86 1010.7
20260501185149 70 68 5.0 9.0 0.00 0.00 0.00 86 1010.6
20260501184105 70 68 6.0 10.0 0.00 0.00 0.00 86 1010.7
20260501183033 70 23 6.0 11.0 0.00 0.00 0.00 86 1010.7
20260501181933 70 45 8.0 10.0 0.00 0.00 0.00 85 1010.8
20260501180848 70 68 9.0 14.0 0.00 0.00 0.00 85 1010.8
20260501175804 70 23 8.0 14.0 0.00 0.00 0.00 84 1011.6
20260501175221 71 68 8.0 14.0 0.00 0.00 0.00 84 1011.6
20260501174119 71 23 7.0 14.0 0.00 0.00 0.00 84 1011.2